Date String (YYYY-MM-DD hh:mm:ss) UTC,Instrument flags,Ambient pressure (hPa),Sample flow (lpm),Bypass flow (lpm),Sample temperature (°C),Ambient temperature (°C),ASC tube jacket temperature (°C),LED temperature (°C),Box temperature (°C),Sample RH (%),Span deviation,Mass concentration (μg/m³),Mass concentration (μg/m³),Mass concentration (μg/m³)
DateTimeUTC,F1_M11,P_M11,Q1_M11,Q2_M11,T1_M11,T2_M11,T3_M11,T4_M11,T5_M11,U1_M11,ZSPAN_M11,X0_M11,X2_M11,X1_M11
2023-01-13 21:00:00,,0827.9,5.00,0.00,26.1,25.0,00.0,34.8,27.9,11.4,0000.0,0009.47,0004.69,0004.41
2023-01-13 21:01:00,,0827.9,5.01,0.00,26.1,25.0,00.0,34.8,27.9,11.4,0000.0,0009.52,0004.75,0004.44
2023-01-13 21:02:00,,0828.0,5.00,0.00,26.1,25.1,00.0,34.8,27.9,11.4,0000.0,0009.01,0004.79,0004.48
2023-01-13 21:03:00,,0828.0,5.00,0.00,26.2,25.1,00.0,34.8,27.9,11.6,0000.0,0008.64,0004.83,0004.52
2023-01-13 21:04:00,,0828.0,5.00,0.00,26.2,25.1,00.0,34.8,28.0,11.3,0000.0,0008.28,0004.79,0004.50
2023-01-13 21:05:00,,0828.0,5.00,0.00,26.2,25.1,00.0,34.9,28.0,11.4,0000.0,0008.39,0004.77,0004.49
2023-01-13 21:06:00,,0828.0,5.00,0.00,26.2,25.2,00.0,34.9,28.1,11.2,0000.0,0008.68,0004.77,0004.47
2023-01-13 21:07:00,,0827.9,5.00,0.00,26.2,25.2,00.0,34.9,28.1,10.9,0000.0,0008.62,0004.76,0004.45
2023-01-13 21:08:00,,0828.0,4.99,0.00,26.3,25.2,00.0,34.9,28.1,11.0,0000.0,0008.58,0004.72,0004.43
2023-01-13 21:09:00,,0828.0,5.00,0.00,26.3,25.3,00.0,34.9,28.2,10.9,0000.0,0008.50,0004.65,0004.38
2023-01-13 21:10:00,,0827.9,4.99,0.00,26.3,25.3,00.0,35.0,28.2,11.2,0000.0,0007.93,0004.58,0004.31
2023-01-13 21:11:00,,0827.9,5.00,0.00,26.3,25.3,00.0,35.0,28.2,11.2,0000.0,0007.77,0004.52,0004.25
2023-01-13 21:12:00,,0827.8,5.00,0.00,26.3,25.3,00.0,35.0,28.2,11.1,0000.0,0007.87,0004.45,0004.21
2023-01-13 21:13:00,,0827.9,5.01,0.00,26.4,25.4,00.0,35.0,28.2,11.1,0000.0,0007.84,0004.40,0004.18
2023-01-13 21:14:00,,0827.9,5.00,0.00,26.4,25.4,00.0,35.0,28.2,11.0,0000.0,0007.93,0004.39,0004.15
2023-01-13 21:15:00,,0827.9,5.02,0.00,26.4,25.4,00.0,35.0,28.2,11.1,0000.0,0007.98,0004.39,0004.13
2023-01-13 21:16:00,,0827.9,4.98,0.00,26.4,25.4,00.0,35.1,28.3,11.2,0000.0,0007.69,0004.37,0004.11
2023-01-13 21:17:00,,0827.8,5.00,0.00,26.4,25.5,00.0,35.1,28.3,11.2,0000.0,0007.84,0004.37,0004.09
2023-01-13 21:18:00,,0827.7,5.00,0.00,26.5,25.5,00.0,35.1,28.3,11.2,0000.0,0008.31,0004.38,0004.09
2023-01-13 21:19:00,,0827.7,4.99,0.00,26.5,25.5,00.0,35.1,28.4,11.3,0000.0,0008.92,0004.45,0004.10
2023-01-13 21:20:00,,0827.8,5.00,0.00,26.5,25.5,00.0,35.1,28.4,11.3,0000.0,0009.06,0004.52,0004.14
2023-01-13 21:21:00,,0827.8,4.99,0.00,26.5,25.5,00.0,35.2,28.4,11.2,0000.0,0009.01,0004.50,0004.13
2023-01-13 21:22:00,,0827.9,5.00,0.00,26.5,25.6,00.0,35.2,28.4,11.2,0000.0,0008.92,0004.47,0004.10
2023-01-13 21:23:00,,0827.9,4.99,0.00,26.6,25.6,00.0,35.2,28.4,11.1,0000.0,0008.59,0004.43,0004.07
2023-01-13 21:24:00,,0827.9,5.01,0.00,26.6,25.6,00.0,35.2,28.5,11.2,0000.0,0008.54,0004.40,0004.03
2023-01-13 21:25:00,,0827.9,5.00,0.00,26.6,25.6,00.0,35.2,28.5,11.1,0000.0,0008.55,0004.35,0004.00
2023-01-13 21:26:00,,0827.9,4.97,0.00,26.6,25.6,00.0,35.3,28.5,11.3,0000.0,0008.50,0004.29,0003.95
2023-01-13 21:27:00,,0827.9,5.00,0.00,26.6,25.7,00.0,35.3,28.5,11.0,0000.0,0008.44,0004.25,0003.91
2023-01-13 21:28:00,,0827.9,4.99,0.00,26.7,25.7,00.0,35.3,28.5,11.1,0000.0,0008.02,0004.19,0003.87
2023-01-13 21:29:00,,0827.9,4.99,0.00,26.7,25.7,00.0,35.3,28.5,11.2,0000.0,0007.42,0004.14,0003.83
2023-01-13 21:30:00,,0827.8,4.99,0.00,26.7,25.7,00.0,35.3,28.5,11.2,0000.0,0006.38,0004.06,0003.80
2023-01-13 21:31:00,,0827.7,4.99,0.00,26.7,25.7,00.0,35.4,28.6,11.0,0000.0,0006.11,0003.97,0003.75
2023-01-13 21:32:00,,0827.7,5.00,0.00,26.7,25.7,00.0,35.4,28.6,10.9,0000.0,0006.23,0003.98,0003.74
2023-01-13 21:33:00,,0827.7,5.00,0.00,26.7,25.6,00.0,35.4,28.6,10.9,0000.0,0006.33,0003.98,0003.72
2023-01-13 21:34:00,,0827.7,5.00,0.00,26.7,25.6,00.0,35.4,28.6,10.8,0000.0,0006.29,0003.96,0003.70
2023-01-13 21:35:00,,0827.7,4.99,0.00,26.7,25.6,00.0,35.4,28.6,10.7,0000.0,0006.21,0003.92,0003.67
2023-01-13 21:36:00,,0827.7,5.00,0.00,26.7,25.5,00.0,35.4,28.6,10.7,0000.0,0006.02,0003.89,0003.63
2023-01-13 21:37:00,,0827.7,4.99,0.00,26.7,25.5,00.0,35.4,28.6,10.4,0000.0,0005.99,0003.84,0003.59
2023-01-13 21:38:00,,0827.7,5.00,0.00,26.7,25.5,00.0,35.5,28.6,10.4,0000.0,0005.92,0003.76,0003.50
2023-01-13 21:39:00,,0827.7,4.99,0.00,26.7,25.4,00.0,35.5,28.5,10.6,0000.0,0005.67,0003.66,0003.41
2023-01-13 21:40:00,,0827.7,5.00,0.00,26.7,25.4,00.0,35.5,28.5,10.7,0000.0,0005.51,0003.57,0003.32
2023-01-13 21:41:00,,0827.7,5.00,0.00,26.7,25.5,00.0,35.5,28.5,10.6,0000.0,0005.26,0003.48,0003.24
2023-01-13 21:42:00,,0827.7,5.00,0.00,26.7,25.5,00.0,35.5,28.5,10.9,0000.0,0005.16,0003.41,0003.17
2023-01-13 21:43:00,,0827.7,5.00,0.00,26.7,25.5,00.0,35.5,28.5,10.9,0000.0,0004.95,0003.32,0003.09
2023-01-13 21:44:00,,0827.7,4.99,0.00,26.7,25.5,00.0,35.5,28.6,10.8,0000.0,0004.74,0003.26,0003.00
2023-01-13 21:45:00,,0827.7,5.00,0.00,26.7,25.5,00.0,35.5,28.6,10.8,0000.0,0004.61,0003.20,0002.92
2023-01-13 21:46:00,,0827.7,5.00,0.00,26.7,25.5,00.0,35.5,28.6,10.8,0000.0,0004.59,0003.18,0002.87
2023-01-13 21:47:00,,0827.7,5.00,0.00,26.7,25.5,00.0,35.5,28.5,11.0,0000.0,0004.32,0003.10,0002.80
2023-01-13 21:48:00,,0827.7,5.00,0.00,26.7,25.5,00.0,35.5,28.6,10.8,0000.0,0004.05,0003.05,0002.75
2023-01-13 21:49:00,,0827.7,5.00,0.00,26.7,25.5,00.0,35.5,28.5,10.8,0000.0,0004.04,0003.09,0002.81
2023-01-13 21:50:00,,0827.7,5.00,0.00,26.7,25.5,00.0,35.5,28.6,10.9,0000.0,0004.12,0003.14,0002.89
2023-01-13 21:51:00,,0827.7,5.00,0.00,26.7,25.5,00.0,35.5,28.6,11.1,0000.0,0004.21,0003.20,0002.98
2023-01-13 21:52:00,,0827.7,5.00,0.00,26.7,25.6,00.0,35.5,28.5,11.0,0000.0,0004.73,0003.25,0003.06
2023-01-13 21:53:00,,0827.7,4.98,0.00,26.7,25.6,00.0,35.5,28.5,11.0,0000.0,0005.16,0003.31,0003.13
2023-01-13 21:54:00,,0827.6,5.01,0.00,26.8,25.6,00.0,35.5,28.6,11.0,0000.0,0005.30,0003.36,0003.18
2023-01-13 21:55:00,,0827.6,5.00,0.00,26.8,25.7,00.0,35.5,28.6,11.0,0000.0,0005.38,0003.40,0003.23
2023-01-13 21:56:00,,0827.5,5.01,0.00,26.8,25.7,00.0,35.6,28.6,10.8,0000.0,0006.28,0003.46,0003.28
2023-01-13 21:57:00,,0827.5,5.00,0.00,26.8,25.7,00.0,35.6,28.6,10.8,0000.0,0006.62,0003.53,0003.34
2023-01-13 21:58:00,,0827.5,5.00,0.00,26.9,25.7,00.0,35.6,28.7,10.6,0000.0,0006.81,0003.61,0003.41
2023-01-13 21:59:00,,0827.6,4.99,0.00,26.9,25.7,00.0,35.6,28.7,10.7,0000.0,0007.04,0003.70,0003.48
